Time,TemperatureF,DewpointF,PressureIn,WindDirection,WindDirectionDegrees,WindSpeedMPH,WindSpeedGustMPH,Humidity,HourlyPrecipIn,Conditions,Clouds,dailyrainin,SoftwareType,DateUTC
2013-02-06 00:00:00,66.9,63.2,30.05,NE,56,0.0,0.0,88,0.00,,,0.00,Wunderground v.1.15,2013-02-06 05:00:00,
2013-02-06 00:05:00,66.8,63.5,30.04,NE,56,0.0,0.0,89,0.00,,,0.00,Wunderground v.1.15,2013-02-06 05:05:00,
2013-02-06 00:15:00,67.0,63.6,30.05,NE,56,0.0,0.0,89,0.00,,,0.00,Wunderground v.1.15,2013-02-06 05:15:00,
2013-02-06 00:20:00,67.0,63.6,30.05,NE,56,0.0,0.0,89,0.00,,,0.00,Wunderground v.1.15,2013-02-06 05:20:00,
2013-02-06 00:25:00,67.0,63.6,30.05,NE,56,0.0,0.0,89,0.00,,,0.00,Wunderground v.1.15,2013-02-06 05:25:00,
2013-02-06 00:30:00,67.1,63.7,30.05,NE,56,0.0,0.0,89,0.00,,,0.00,Wunderground v.1.15,2013-02-06 05:30:00,
2013-02-06 00:40:00,67.1,64.1,30.05,NE,56,0.0,0.0,90,0.00,,,0.00,Wunderground v.1.15,2013-02-06 05:40:00,
2013-02-06 00:45:00,67.2,63.8,30.05,NE,56,0.0,0.0,89,0.00,,,0.00,Wunderground v.1.15,2013-02-06 05:45:00,
2013-02-06 00:55:00,67.3,64.3,30.05,NE,56,0.0,0.0,90,0.00,,,0.00,Wunderground v.1.15,2013-02-06 05:55:00,
2013-02-06 01:00:00,67.4,64.4,30.05,NE,56,0.0,0.0,90,0.00,,,0.00,Wunderground v.1.15,2013-02-06 06:00:00,
2013-02-06 01:10:00,67.6,64.6,30.04,NE,56,0.0,0.0,90,0.00,,,0.00,Wunderground v.1.15,2013-02-06 06:10:00,
2013-02-06 01:20:00,67.4,64.0,30.04,NE,56,0.0,0.0,89,0.00,,,0.00,Wunderground v.1.15,2013-02-06 06:20:00,
2013-02-06 01:30:00,67.1,63.7,30.04,NE,56,0.0,0.0,89,0.00,,,0.00,Wunderground v.1.15,2013-02-06 06:30:00,
2013-02-06 01:40:00,66.7,63.4,30.04,NE,56,0.0,0.0,89,0.00,,,0.00,Wunderground v.1.15,2013-02-06 06:40:00,
2013-02-06 01:50:00,66.8,63.8,30.04,NE,56,0.0,0.0,90,0.00,,,0.00,Wunderground v.1.15,2013-02-06 06:50:00,
2013-02-06 01:55:00,66.7,63.7,30.04,NE,56,0.0,0.0,90,0.00,,,0.00,Wunderground v.1.15,2013-02-06 06:55:00,
2013-02-06 02:01:00,66.7,63.7,30.03,NE,56,0.0,0.0,90,0.00,,,0.00,Wunderground v.1.15,2013-02-06 07:01:00,
2013-02-06 02:10:00,66.6,63.6,30.03,NE,56,0.0,0.0,90,0.00,,,0.00,Wunderground v.1.15,2013-02-06 07:10:00,
2013-02-06 02:15:00,66.3,63.3,30.03,NE,56,0.0,0.0,90,0.00,,,0.00,Wunderground v.1.15,2013-02-06 07:15:00,
2013-02-06 02:20:00,66.1,63.1,30.03,NE,56,0.0,0.0,90,0.00,,,0.00,Wunderground v.1.15,2013-02-06 07:20:00,
2013-02-06 02:30:00,65.7,62.7,30.03,NE,56,0.0,0.0,90,0.00,,,0.00,Wunderground v.1.15,2013-02-06 07:30:00,
2013-02-06 02:35:00,65.6,62.9,30.03,NE,56,0.0,0.0,91,0.00,,,0.00,Wunderground v.1.15,2013-02-06 07:35:00,
2013-02-06 02:41:00,65.6,62.9,30.03,NE,56,0.0,0.0,91,0.00,,,0.00,Wunderground v.1.15,2013-02-06 07:41:00,
2013-02-06 02:50:00,65.4,62.7,30.03,NE,56,0.0,0.0,91,0.00,,,0.00,Wunderground v.1.15,2013-02-06 07:50:00,
2013-02-06 03:01:00,65.3,62.9,30.03,NE,56,0.0,0.0,92,0.00,,,0.00,Wunderground v.1.15,2013-02-06 08:01:00,
2013-02-06 03:11:00,65.3,62.9,30.03,NE,56,0.0,0.0,92,0.00,,,0.00,Wunderground v.1.15,2013-02-06 08:11:00,
2013-02-06 03:21:00,65.4,63.0,30.03,NE,56,0.0,0.0,92,0.00,,,0.00,Wunderground v.1.15,2013-02-06 08:21:00,
2013-02-06 03:26:00,65.3,62.9,30.03,NE,56,0.0,0.0,92,0.00,,,0.00,Wunderground v.1.15,2013-02-06 08:26:00,
2013-02-06 03:36:00,65.2,62.8,30.03,NE,56,0.0,0.0,92,0.00,,,0.00,Wunderground v.1.15,2013-02-06 08:36:00,
2013-02-06 03:46:00,65.1,62.7,30.03,NE,56,0.0,0.0,92,0.00,,,0.00,Wunderground v.1.15,2013-02-06 08:46:00,
2013-02-06 03:55:00,65.1,63.0,30.03,NE,56,0.0,0.0,93,0.00,,,0.00,Wunderground v.1.15,2013-02-06 08:55:00,
2013-02-06 04:00:00,65.1,63.0,30.03,NE,56,0.0,0.0,93,0.00,,,0.00,Wunderground v.1.15,2013-02-06 09:00:00,
2013-02-06 04:10:00,64.9,62.8,30.03,NE,56,0.0,0.0,93,0.00,,,0.00,Wunderground v.1.15,2013-02-06 09:10:00,
2013-02-06 04:20:00,65.1,63.0,30.03,NE,56,0.0,0.0,93,0.00,,,0.00,Wunderground v.1.15,2013-02-06 09:20:00,
2013-02-06 04:25:00,65.0,62.9,30.03,NE,56,0.0,0.0,93,0.00,,,0.00,Wunderground v.1.15,2013-02-06 09:25:00,
2013-02-06 04:35:00,64.7,62.6,30.03,NE,56,0.0,0.0,93,0.00,,,0.00,Wunderground v.1.15,2013-02-06 09:35:00,
2013-02-06 04:45:00,64.2,62.1,30.03,NE,56,0.0,0.0,93,0.00,,,0.00,Wunderground v.1.15,2013-02-06 09:45:00,
2013-02-06 04:50:00,64.3,62.5,30.04,NE,56,0.0,0.0,94,0.00,,,0.00,Wunderground v.1.15,2013-02-06 09:50:00,
2013-02-06 04:55:00,64.2,62.1,30.03,NE,56,0.0,0.0,93,0.00,,,0.00,Wunderground v.1.15,2013-02-06 09:55:00,
2013-02-06 05:00:00,64.3,62.5,30.03,NE,56,0.0,0.0,94,0.00,,,0.00,Wunderground v.1.15,2013-02-06 10:00:00,
2013-02-06 05:10:00,64.0,61.9,30.03,NE,56,0.0,0.0,93,0.00,,,0.00,Wunderground v.1.15,2013-02-06 10:10:00,
2013-02-06 05:20:00,63.7,61.9,30.04,NE,56,0.0,0.0,94,0.00,,,0.00,Wunderground v.1.15,2013-02-06 10:20:00,
2013-02-06 05:30:00,63.8,62.0,30.04,NE,56,0.0,0.0,94,0.00,,,0.00,Wunderground v.1.15,2013-02-06 10:30:00,
2013-02-06 05:35:00,63.7,61.9,30.04,NE,56,0.0,0.0,94,0.00,,,0.00,Wunderground v.1.15,2013-02-06 10:35:00,
2013-02-06 05:40:00,63.7,61.9,30.04,NE,56,0.0,0.0,94,0.00,,,0.00,Wunderground v.1.15,2013-02-06 10:40:00,
2013-02-06 05:45:00,63.6,61.8,30.05,NE,56,0.0,0.0,94,0.00,,,0.00,Wunderground v.1.15,2013-02-06 10:45:00,
2013-02-06 05:55:00,63.8,62.3,30.05,NE,56,0.0,0.0,95,0.00,,,0.00,Wunderground v.1.15,2013-02-06 10:55:00,
2013-02-06 06:01:00,63.9,62.1,30.05,NE,56,0.0,0.0,94,0.00,,,0.00,Wunderground v.1.15,2013-02-06 11:01:00,
2013-02-06 06:10:00,63.8,62.0,30.06,ENE,74,0.0,0.0,94,0.00,,,0.00,Wunderground v.1.15,2013-02-06 11:10:00,
2013-02-06 06:20:00,63.6,61.8,30.06,ENE,74,0.0,0.0,94,0.00,,,0.00,Wunderground v.1.15,2013-02-06 11:20:00,
2013-02-06 06:31:00,63.5,62.0,30.07,ENE,74,0.0,0.0,95,0.00,,,0.00,Wunderground v.1.15,2013-02-06 11:31:00,
2013-02-06 06:40:00,63.3,61.8,30.07,ENE,74,0.0,0.0,95,0.00,,,0.00,Wunderground v.1.15,2013-02-06 11:40:00,
2013-02-06 06:50:00,63.6,62.1,30.08,ENE,74,0.0,0.0,95,0.00,,,0.00,Wunderground v.1.15,2013-02-06 11:50:00,
2013-02-06 07:01:00,63.3,61.8,30.08,ENE,74,0.0,0.0,95,0.00,,,0.00,Wunderground v.1.15,2013-02-06 12:01:00,
2013-02-06 07:10:00,63.2,61.7,30.08,ENE,74,0.0,0.0,95,0.00,,,0.00,Wunderground v.1.15,2013-02-06 12:10:00,
2013-02-06 07:16:00,63.2,61.7,30.08,ENE,74,0.0,0.0,95,0.00,,,0.00,Wunderground v.1.15,2013-02-06 12:16:00,
2013-02-06 07:26:00,63.5,62.0,30.09,ENE,74,0.0,0.0,95,0.00,,,0.00,Wunderground v.1.15,2013-02-06 12:26:00,
2013-02-06 07:36:00,63.6,62.1,30.09,ENE,74,0.0,0.0,95,0.00,,,0.00,Wunderground v.1.15,2013-02-06 12:36:00,
2013-02-06 07:46:00,63.8,62.3,30.09,WSW,238,0.0,0.0,95,0.00,,,0.00,Wunderground v.1.15,2013-02-06 12:46:00,
2013-02-06 07:55:00,64.6,63.1,30.09,WSW,238,0.0,0.0,95,0.00,,,0.00,Wunderground v.1.15,2013-02-06 12:55:00,
2013-02-06 08:00:00,65.0,63.2,30.09,WSW,238,0.0,0.0,94,0.00,,,0.00,Wunderground v.1.15,2013-02-06 13:00:00,
2013-02-06 08:10:00,66.4,64.3,30.09,SSW,198,0.0,0.0,93,0.00,,,0.00,Wunderground v.1.15,2013-02-06 13:10:00,
2013-02-06 08:20:00,67.7,64.0,30.09,SSW,194,0.0,0.0,88,0.00,,,0.00,Wunderground v.1.15,2013-02-06 13:20:00,
2013-02-06 08:25:00,68.7,64.3,30.09,SE,146,0.0,0.0,86,0.00,,,0.00,Wunderground v.1.15,2013-02-06 13:25:00,
2013-02-06 08:35:00,70.7,64.9,30.10,WSW,238,0.0,0.0,82,0.00,,,0.00,Wunderground v.1.15,2013-02-06 13:35:00,
2013-02-06 08:45:00,71.6,64.7,30.10,WSW,243,0.0,0.0,79,0.00,,,0.00,Wunderground v.1.15,2013-02-06 13:45:00,
2013-02-06 08:55:00,73.1,65.1,30.09,WSW,243,0.0,0.0,76,0.00,,,0.00,Wunderground v.1.15,2013-02-06 13:55:00,
2013-02-06 09:00:00,72.8,65.2,30.10,WSW,240,0.0,0.0,77,0.00,,,0.00,Wunderground v.1.15,2013-02-06 14:00:00,
2013-02-06 09:10:00,73.9,65.5,30.11,SW,232,1.0,2.0,75,0.00,,,0.00,Wunderground v.1.15,2013-02-06 14:10:00,
2013-02-06 09:20:00,73.6,66.3,30.11,WSW,243,1.0,1.0,78,0.00,,,0.00,Wunderground v.1.15,2013-02-06 14:20:00,
2013-02-06 09:30:00,73.5,66.6,30.11,WSW,240,1.0,1.0,79,0.00,,,0.00,Wunderground v.1.15,2013-02-06 14:30:00,
2013-02-06 09:35:00,73.8,66.5,30.11,SW,228,1.0,1.0,78,0.00,,,0.00,Wunderground v.1.15,2013-02-06 14:35:00,
2013-02-06 09:45:00,74.8,67.1,30.11,WSW,248,0.0,0.0,77,0.00,,,0.00,Wunderground v.1.15,2013-02-06 14:45:00,
2013-02-06 09:50:00,74.8,67.1,30.10,NW,305,0.0,1.0,77,0.00,,,0.00,Wunderground v.1.15,2013-02-06 14:50:00,
2013-02-06 09:55:00,75.1,67.0,30.10,WSW,249,1.0,1.0,76,0.00,,,0.00,Wunderground v.1.15,2013-02-06 14:55:00,
2013-02-06 10:00:00,75.7,67.2,30.10,SW,233,1.0,1.0,75,0.00,,,0.00,Wunderground v.1.15,2013-02-06 15:00:00,
2013-02-06 10:10:00,76.5,67.6,30.10,NNW,339,1.0,1.0,74,0.00,,,0.00,Wunderground v.1.15,2013-02-06 15:10:00,
2013-02-06 10:16:00,76.7,67.0,30.10,NW,310,1.0,1.0,72,0.00,,,0.00,Wunderground v.1.15,2013-02-06 15:16:00,
2013-02-06 10:25:00,77.4,67.7,30.10,WSW,249,1.0,2.0,72,0.00,,,0.00,Wunderground v.1.15,2013-02-06 15:25:00,
2013-02-06 10:30:00,77.0,68.1,30.10,West,260,1.0,1.0,74,0.00,,,0.00,Wunderground v.1.15,2013-02-06 15:30:00,
2013-02-06 10:40:00,76.8,67.5,30.10,North,349,1.0,1.0,73,0.00,,,0.00,Wunderground v.1.15,2013-02-06 15:40:00,
2013-02-06 10:45:00,77.1,67.4,30.10,West,260,1.0,1.0,72,0.00,,,0.00,Wunderground v.1.15,2013-02-06 15:45:00,
2013-02-06 10:50:00,77.0,67.7,30.10,West,273,1.0,1.0,73,0.00,,,0.00,Wunderground v.1.15,2013-02-06 15:50:00,
2013-02-06 10:56:00,77.5,67.4,30.10,SW,235,2.0,2.0,71,0.00,,,0.00,Wunderground v.1.15,2013-02-06 15:56:00,
2013-02-06 11:01:00,77.3,67.6,30.10,West,259,2.0,2.0,72,0.00,,,0.00,Wunderground v.1.15,2013-02-06 16:01:00,
2013-02-06 11:11:00,77.4,68.1,30.10,NNE,18,2.0,2.0,73,0.00,,,0.00,Wunderground v.1.15,2013-02-06 16:11:00,
2013-02-06 11:21:00,77.5,66.9,30.10,NE,34,3.0,5.0,70,0.00,,,0.00,Wunderground v.1.15,2013-02-06 16:21:00,
2013-02-06 11:26:00,77.4,66.8,30.10,NE,39,3.0,5.0,70,0.00,,,0.00,Wunderground v.1.15,2013-02-06 16:26:00,
2013-02-06 11:31:00,77.7,67.1,30.10,NW,311,3.0,3.0,70,0.00,,,0.00,Wunderground v.1.15,2013-02-06 16:31:00,
2013-02-06 11:41:00,77.2,67.1,30.10,NNE,31,3.0,3.0,71,0.00,,,0.00,Wunderground v.1.15,2013-02-06 16:41:00,
2013-02-06 11:46:00,77.5,66.9,30.10,North,9,2.0,3.0,70,0.00,,,0.00,Wunderground v.1.15,2013-02-06 16:46:00,
2013-02-06 11:55:00,76.9,66.4,30.10,WSW,254,3.0,3.0,70,0.00,,,0.00,Wunderground v.1.15,2013-02-06 16:55:00,
2013-02-06 12:00:00,77.0,66.5,30.10,ENE,71,2.0,4.0,70,0.00,,,0.00,Wunderground v.1.15,2013-02-06 17:00:00,
2013-02-06 12:10:00,77.3,66.3,30.09,NW,310,3.0,3.0,69,0.00,,,0.00,Wunderground v.1.15,2013-02-06 17:10:00,
2013-02-06 12:20:00,77.8,66.8,30.09,West,260,3.0,3.0,69,0.00,,,0.00,Wunderground v.1.15,2013-02-06 17:20:00,
2013-02-06 12:30:00,78.2,66.3,30.08,NNW,330,3.0,5.0,67,0.00,,,0.00,Wunderground v.1.15,2013-02-06 17:30:00,
2013-02-06 12:35:00,77.5,66.1,30.08,NNE,18,4.0,5.0,68,0.00,,,0.00,Wunderground v.1.15,2013-02-06 17:35:00,
2013-02-06 12:40:00,77.4,66.0,30.08,NNE,12,4.0,6.0,68,0.00,,,0.00,Wunderground v.1.15,2013-02-06 17:40:00,
2013-02-06 12:45:00,77.4,66.4,30.08,NE,49,4.0,6.0,69,0.00,,,0.00,Wunderground v.1.15,2013-02-06 17:45:00,
2013-02-06 12:55:00,77.7,65.9,30.07,North,358,4.0,4.0,67,0.00,,,0.00,Wunderground v.1.15,2013-02-06 17:55:00,
2013-02-06 13:00:00,77.9,66.9,30.07,NE,37,4.0,4.0,69,0.00,,,0.00,Wunderground v.1.15,2013-02-06 18:00:00,
2013-02-06 13:10:00,77.7,66.7,30.07,NNE,15,4.0,4.0,69,0.00,,,0.00,Wunderground v.1.15,2013-02-06 18:10:00,
2013-02-06 13:15:00,77.9,66.9,30.06,NNW,346,4.0,4.0,69,0.00,,,0.00,Wunderground v.1.15,2013-02-06 18:15:00,
2013-02-06 13:25:00,77.4,66.4,30.06,North,1,4.0,8.0,69,0.00,,,0.00,Wunderground v.1.15,2013-02-06 18:25:00,
2013-02-06 13:30:00,77.4,66.4,30.06,NE,46,5.0,7.0,69,0.00,,,0.00,Wunderground v.1.15,2013-02-06 18:30:00,
2013-02-06 13:40:00,78.3,67.7,30.06,NNW,342,4.0,4.0,70,0.00,,,0.00,Wunderground v.1.15,2013-02-06 18:40:00,
2013-02-06 13:45:00,78.3,66.9,30.06,West,278,3.0,4.0,68,0.00,,,0.00,Wunderground v.1.15,2013-02-06 18:45:00,
2013-02-06 13:55:00,78.0,67.0,30.06,WNW,290,3.0,3.0,69,0.00,,,0.00,Wunderground v.1.15,2013-02-06 18:55:00,
2013-02-06 14:01:00,78.0,67.4,30.06,NE,44,2.0,5.0,70,0.00,,,0.00,Wunderground v.1.15,2013-02-06 19:01:00,
2013-02-06 14:10:00,78.8,67.3,30.06,NNE,15,2.0,3.0,68,0.00,,,0.00,Wunderground v.1.15,2013-02-06 19:10:00,
2013-02-06 14:15:00,78.2,66.3,30.06,North,360,3.0,3.0,67,0.00,,,0.00,Wunderground v.1.15,2013-02-06 19:15:00,
2013-02-06 14:25:00,78.4,66.5,30.06,NNE,33,3.0,3.0,67,0.00,,,0.00,Wunderground v.1.15,2013-02-06 19:25:00,
2013-02-06 14:35:00,78.5,67.1,30.05,NW,323,2.0,2.0,68,0.00,,,0.00,Wunderground v.1.15,2013-02-06 19:35:00,
2013-02-06 14:41:00,78.5,67.1,30.06,NW,307,3.0,3.0,68,0.00,,,0.00,Wunderground v.1.15,2013-02-06 19:41:00,
2013-02-06 14:50:00,78.9,66.6,30.05,WSW,246,3.0,4.0,66,0.00,,,0.00,Wunderground v.1.15,2013-02-06 19:50:00,
2013-02-06 15:01:00,79.2,67.3,30.05,North,5,2.0,3.0,67,0.00,,,0.00,Wunderground v.1.15,2013-02-06 20:01:00,
2013-02-06 15:10:00,78.8,66.9,30.05,NNW,348,3.0,3.0,67,0.00,,,0.00,Wunderground v.1.15,2013-02-06 20:10:00,
2013-02-06 15:21:00,78.3,66.9,30.05,West,271,3.0,3.0,68,0.00,,,0.00,Wunderground v.1.15,2013-02-06 20:21:00,
2013-02-06 15:31:00,77.4,66.4,30.05,NE,35,3.0,3.0,69,0.00,,,0.00,Wunderground v.1.15,2013-02-06 20:31:00,
2013-02-06 15:41:00,76.6,66.1,30.05,NW,324,2.0,3.0,70,0.00,,,0.00,Wunderground v.1.15,2013-02-06 20:41:00,
2013-02-06 15:50:00,76.3,66.6,30.05,NW,310,2.0,2.0,72,0.00,,,0.00,Wunderground v.1.15,2013-02-06 20:50:00,
2013-02-06 16:00:00,76.0,66.7,30.05,NNW,333,3.0,3.0,73,0.00,,,0.00,Wunderground v.1.15,2013-02-06 21:00:00,
2013-02-06 16:10:00,76.5,66.8,30.05,WNW,290,2.0,3.0,72,0.00,,,0.00,Wunderground v.1.15,2013-02-06 21:10:00,
2013-02-06 16:20:00,76.1,66.0,30.05,North,4,3.0,3.0,71,0.00,,,0.00,Wunderground v.1.15,2013-02-06 21:20:00,
2013-02-06 16:30:00,76.3,66.2,30.05,NW,323,2.0,2.0,71,0.00,,,0.00,Wunderground v.1.15,2013-02-06 21:30:00,
2013-02-06 16:40:00,76.7,66.2,30.05,WSW,240,2.0,2.0,70,0.00,,,0.00,Wunderground v.1.15,2013-02-06 21:40:00,
2013-02-06 16:50:00,77.1,66.1,30.05,SW,214,2.0,2.0,69,0.00,,,0.00,Wunderground v.1.15,2013-02-06 21:50:00,
2013-02-06 17:00:00,76.9,66.4,30.05,NE,40,3.0,3.0,70,0.00,,,0.00,Wunderground v.1.15,2013-02-06 22:00:00,
2013-02-06 17:10:00,76.7,66.2,30.05,North,5,2.0,2.0,70,0.00,,,0.00,Wunderground v.1.15,2013-02-06 22:10:00,
2013-02-06 17:20:00,76.4,66.7,30.05,NNE,22,2.0,2.0,72,0.00,,,0.00,Wunderground v.1.15,2013-02-06 22:20:00,
2013-02-06 17:25:00,76.1,66.4,30.05,NNE,15,2.0,7.0,72,0.00,,,0.00,Wunderground v.1.15,2013-02-06 22:25:00,
2013-02-06 17:30:00,75.9,66.6,30.05,WSW,250,3.0,3.0,73,0.00,,,0.00,Wunderground v.1.15,2013-02-06 22:30:00,
2013-02-06 17:35:00,75.6,66.3,30.05,WNW,302,3.0,3.0,73,0.00,,,0.00,Wunderground v.1.15,2013-02-06 22:35:00,
2013-02-06 17:40:00,75.2,66.3,30.05,WNW,297,2.0,2.0,74,0.00,,,0.00,Wunderground v.1.15,2013-02-06 22:40:00,
2013-02-06 17:50:00,75.1,66.6,30.05,NNE,23,1.0,4.0,75,0.00,,,0.00,Wunderground v.1.15,2013-02-06 22:50:00,
2013-02-06 17:55:00,74.9,66.4,30.05,NE,56,2.0,4.0,75,0.00,,,0.00,Wunderground v.1.15,2013-02-06 22:55:00,
2013-02-06 18:01:00,74.7,66.6,30.05,NNE,15,3.0,3.0,76,0.00,,,0.00,Wunderground v.1.15,2013-02-06 23:01:00,
2013-02-06 18:10:00,74.5,66.4,30.05,WSW,249,2.0,2.0,76,0.00,,,0.00,Wunderground v.1.15,2013-02-06 23:10:00,
2013-02-06 18:15:00,74.1,66.0,30.06,SW,233,2.0,2.0,76,0.00,,,0.00,Wunderground v.1.15,2013-02-06 23:15:00,
2013-02-06 18:20:00,73.7,65.7,30.06,WNW,291,2.0,2.0,76,0.00,,,0.00,Wunderground v.1.15,2013-02-06 23:20:00,
2013-02-06 18:30:00,73.1,65.1,30.06,WSW,249,2.0,2.0,76,0.00,,,0.00,Wunderground v.1.15,2013-02-06 23:30:00,
2013-02-06 18:35:00,73.1,65.1,30.06,North,355,2.0,2.0,76,0.00,,,0.00,Wunderground v.1.15,2013-02-06 23:35:00,
2013-02-06 18:45:00,73.3,64.5,30.06,NW,305,2.0,3.0,74,0.00,,,0.00,Wunderground v.1.15,2013-02-06 23:45:00,
2013-02-06 18:51:00,73.5,64.7,30.07,WSW,255,2.0,4.0,74,0.00,,,0.00,Wunderground v.1.15,2013-02-06 23:51:00,
2013-02-06 19:01:00,73.7,64.1,30.07,NNW,347,2.0,2.0,72,0.00,,,0.00,Wunderground v.1.15,2013-02-07 00:01:00,
2013-02-06 19:11:00,73.7,64.1,30.07,West,269,1.0,2.0,72,0.00,,,0.00,Wunderground v.1.15,2013-02-07 00:11:00,
2013-02-06 19:21:00,73.8,63.8,30.07,WNW,296,2.0,4.0,71,0.00,,,0.00,Wunderground v.1.15,2013-02-07 00:21:00,
2013-02-06 19:31:00,73.8,63.8,30.07,North,351,2.0,2.0,71,0.00,,,0.00,Wunderground v.1.15,2013-02-07 00:31:00,
2013-02-06 19:41:00,73.9,63.5,30.08,NW,305,2.0,4.0,70,0.00,,,0.00,Wunderground v.1.15,2013-02-07 00:41:00,
2013-02-06 19:51:00,73.7,63.3,30.08,SW,235,2.0,3.0,70,0.00,,,0.00,Wunderground v.1.15,2013-02-07 00:51:00,
2013-02-06 19:56:00,73.7,63.3,30.08,WNW,288,3.0,3.0,70,0.00,,,0.00,Wunderground v.1.15,2013-02-07 00:56:00,
2013-02-06 20:01:00,73.6,63.6,30.08,NW,305,2.0,3.0,71,0.00,,,0.00,Wunderground v.1.15,2013-02-07 01:01:00,
2013-02-06 20:11:00,73.5,64.3,30.08,West,262,2.0,2.0,73,0.00,,,0.00,Wunderground v.1.15,2013-02-07 01:11:00,
2013-02-06 20:21:00,73.4,64.6,30.08,WNW,285,2.0,3.0,74,0.00,,,0.00,Wunderground v.1.15,2013-02-07 01:21:00,
2013-02-06 20:26:00,73.3,64.5,30.08,West,267,2.0,3.0,74,0.00,,,0.00,Wunderground v.1.15,2013-02-07 01:26:00,
2013-02-06 20:31:00,73.4,64.6,30.08,NNW,342,3.0,3.0,74,0.00,,,0.00,Wunderground v.1.15,2013-02-07 01:31:00,
2013-02-06 20:41:00,73.3,64.9,30.08,WSW,250,2.0,2.0,75,0.00,,,0.00,Wunderground v.1.15,2013-02-07 01:41:00,
2013-02-06 20:46:00,73.2,64.0,30.08,NNW,333,2.0,3.0,73,0.00,,,0.00,Wunderground v.1.15,2013-02-07 01:46:00,
2013-02-06 20:51:00,73.3,64.5,30.08,WSW,257,2.0,3.0,74,0.00,,,0.00,Wunderground v.1.15,2013-02-07 01:51:00,
2013-02-06 21:00:00,73.3,64.5,30.08,WSW,257,2.0,2.0,74,0.00,,,0.00,Wunderground v.1.15,2013-02-07 02:00:00,
2013-02-06 21:10:00,73.2,64.4,30.08,North,4,2.0,3.0,74,0.00,,,0.00,Wunderground v.1.15,2013-02-07 02:10:00,
2013-02-06 21:15:00,73.2,64.4,30.08,WNW,283,2.0,4.0,74,0.00,,,0.00,Wunderground v.1.15,2013-02-07 02:15:00,
2013-02-06 21:25:00,73.3,64.5,30.08,West,260,2.0,4.0,74,0.00,,,0.00,Wunderground v.1.15,2013-02-07 02:25:00,
2013-02-06 21:35:00,73.3,64.9,30.08,WSW,240,2.0,2.0,75,0.00,,,0.00,Wunderground v.1.15,2013-02-07 02:35:00,
2013-02-06 21:40:00,73.1,64.7,30.08,WNW,297,2.0,6.0,75,0.00,,,0.00,Wunderground v.1.15,2013-02-07 02:40:00,
2013-02-06 21:50:00,73.2,64.8,30.08,WNW,288,2.0,2.0,75,0.00,,,0.00,Wunderground v.1.15,2013-02-07 02:50:00,
2013-02-06 22:00:00,73.1,64.7,30.09,West,280,2.0,2.0,75,0.00,,,0.00,Wunderground v.1.15,2013-02-07 03:00:00,
2013-02-06 22:10:00,73.1,64.7,30.08,West,281,2.0,4.0,75,0.00,,,0.00,Wunderground v.1.15,2013-02-07 03:10:00,
2013-02-06 22:15:00,73.1,64.7,30.08,East,96,2.0,4.0,75,0.00,,,0.00,Wunderground v.1.15,2013-02-07 03:15:00,
2013-02-06 22:25:00,73.1,64.7,30.09,WNW,288,3.0,3.0,75,0.00,,,0.00,Wunderground v.1.15,2013-02-07 03:25:00,
2013-02-06 22:35:00,73.2,64.4,30.09,West,281,3.0,3.0,74,0.00,,,0.00,Wunderground v.1.15,2013-02-07 03:35:00,
2013-02-06 22:40:00,73.2,64.8,30.09,South,188,2.0,2.0,75,0.00,,,0.00,Wunderground v.1.15,2013-02-07 03:40:00,
2013-02-06 22:50:00,73.2,64.8,30.08,NW,308,2.0,2.0,75,0.00,,,0.00,Wunderground v.1.15,2013-02-07 03:50:00,
2013-02-06 22:55:00,73.3,64.9,30.09,WNW,284,2.0,3.0,75,0.00,,,0.00,Wunderground v.1.15,2013-02-07 03:55:00,
2013-02-06 23:01:00,73.2,65.2,30.08,WSW,246,2.0,2.0,76,0.00,,,0.00,Wunderground v.1.15,2013-02-07 04:01:00,
2013-02-06 23:10:00,73.1,65.1,30.08,West,276,2.0,2.0,76,0.00,,,0.00,Wunderground v.1.15,2013-02-07 04:10:00,
2013-02-06 23:15:00,73.2,65.2,30.08,West,262,2.0,2.0,76,0.00,,,0.00,Wunderground v.1.15,2013-02-07 04:15:00,
2013-02-06 23:20:00,73.2,65.2,30.08,NW,323,2.0,8.0,76,0.00,,,0.00,Wunderground v.1.15,2013-02-07 04:20:00,
2013-02-06 23:30:00,73.3,65.3,30.08,SW,233,2.0,3.0,76,0.00,,,0.00,Wunderground v.1.15,2013-02-07 04:30:00,
2013-02-06 23:35:00,73.3,64.9,30.08,WNW,283,3.0,3.0,75,0.00,,,0.00,Wunderground v.1.15,2013-02-07 04:35:00,
2013-02-06 23:40:00,73.4,65.4,30.08,WSW,256,2.0,2.0,76,0.00,,,0.00,Wunderground v.1.15,2013-02-07 04:40:00,
2013-02-06 23:46:00,73.3,64.9,30.08,WSW,250,2.0,3.0,75,0.00,,,0.00,Wunderground v.1.15,2013-02-07 04:46:00,
2013-02-06 23:51:00,73.3,64.9,30.08,WSW,243,2.0,2.0,75,0.00,,,0.00,Wunderground v.1.15,2013-02-07 04:51:00,